Regional Weather Roundup
Issued by NWS

Home | Current Version | Previous Version | Graphics & Text | Print | Product List | Glossary On
Versions: 1 2 3 4 5 6 7 8 9 10 11 12 13 14 15 16 17 18 19 20 21 22 23 24 25 26 27 28 29 30 31 32 33 34 35 36 37 38 39 40 41 42 43 44 45 46 47 48 49 50
000
ASUS45 KTFX 050519
RWRMT
MONTANA HOURLY WEATHER ROUNDUP
NATIONAL WEATHER SERVICE GREAT FALLS MT
1019 PM MST WED MAR 4 2015

NOTE: "FAIR" INDICATES FEW OR NO CLOUDS BELOW 12000 FEET WITH NO
SIGNIFICANT WEATHER AND/OR OBSTRUCTIONS TO VISIBILITY.

* THESE STATIONS ARE NOT UNDER NWS QUALITY CONTROL. THEY DO NOT
   REPORT WEATHER SUCH AS PRECIPITATION OR FOG.

MTZ001>007-043-050600-
WEST OF THE DIVIDE
CITY           SKY/WX    TMP DP  RH WIND       PRES   REMARKS
KALISPELL      CLOUDY    25  18  75 CALM      30.20R
MISSOULA       PTCLDY    28  14  56 NW7       30.25R WCI  21
BUTTE          PTCLDY    23  10  57 NW3       30.13R
MULLAN PASS    CLEAR     21   5  50 SW6       30.15R WCI  13
* ANACONDA     PTCLDY    32   9  38 SW13       N/A   WCI  22
* ESSEX        N/A       20  12  71 N/A        N/A
* EUREKA APT   PTCLDY    25  10  53 CALM      30.22R
* HAMILTON APT CLEAR     34  10  37 S3        30.23R
* LIBBY APT    PTCLDY    27  16  63 CALM      30.24R
* LINCOLN      N/A       29   9  43 SW4G11     N/A
* LOOKOUT PASS N/A       26   8  46 VRB2       N/A
* POLSON       N/A       27  11  51 S1         N/A
* RONAN APT    MOCLDY    28  19  69 N/A        N/A
* SEELEY LAKE  N/A       17   7  65 N/A        N/A
* THOMP F APT  PTCLDY    16   5  62 N2         N/A
* YAAK HILL    N/A       28   9  45 NE2        N/A
$$

MTZ008-052>055-050600-
SOUTHWEST MONTANA
CITY           SKY/WX    TMP DP  RH WIND       PRES   REMARKS
BOZEMAN        CLEAR     18   9  68 SW3       30.13R
DILLON         MOCLDY    28   9  45 S15       30.13R WCI  16
* W YELLOWSTON CLEAR     14   1  56 SW3G10     N/A
* THREE FORKS  PTCLDY    19   7  59 N/A        N/A
* BOULDER HILL N/A       27   2  34 S6G12      N/A   WCI  20
* MONIDA PASS  N/A       14   5  67 SE12       N/A
* RAYNOLDS PAS N/A       11  -1  58 S6G11      N/A   WCI   1
* WHITEHALL    N/A       30   6  36 NW9G14     N/A   WCI  22
* WISE RIVER   N/A       30   4  33 W13G20     N/A   WCI  20
$$

MTZ009>010-012-014-046-048-049-054-050600-
EAST SLOPES AND CENTRAL MONTANA
CITY           SKY/WX    TMP DP  RH WIND       PRES   REMARKS
CUT BANK       PTCLDY    28  10  47 W25G33    29.96R WCI  13
GREAT FALLS    PTCLDY    27  12  53 SW12      30.01S WCI  16
HELENA         MOCLDY    36  10  34 W10       30.11R WCI  29
MALMSTROM AFB  PTCLDY    28  14  56 SW13      30.03S WCI  17
* CONRAD       PTCLDY    27  16  63 S6         N/A   WCI  20
* DEARBORN     N/A       35  12  38 S4G10      N/A
* EAST GLACIER N/A       27   7  42 W31G40     N/A   WCI  11
* MONARCH      N/A       25   3  38 SW13G18    N/A   WCI  13
* PENDROY      N/A       25  11  55 W8         N/A   WCI  16
* ROGERS PASS  N/A       25   9  50 SE14G26    N/A   WCI  13
* SWEET GRASS  N/A       29  11  47 W19G28     N/A   WCI  16
* WHITE SULPH  N/A       23   7  50 SW3G9      N/A
$$

MTZ011-013-016-021-035-040-045-047-050-051-050600-
NORTH CENTRAL MONTANA
CITY           SKY/WX    TMP DP  RH WIND       PRES   REMARKS
HAVRE          CLEAR     25  14  63 SW14      30.00R WCI  13
LEWISTOWN      CLEAR     21   5  50 VRB5      30.00S WCI  14
* N BAR RANCH  CLEAR     10   0  64 W3        30.00F
* CHINOOK      CLEAR     16   3  56 E5        30.03R WCI   8
* FORT BENTON  PTCLDY    28  12  51 SW9       30.04R WCI  19
* MALTA APT    CLEAR     19   0  43 N/A        N/A
* CHESTER      N/A       26  10  51 W6         N/A   WCI  19
* DENTON       N/A       20   7  57 S11        N/A   WCI   8
* GEYSER       N/A       29  10  45 W30        N/A   WCI  14
* JUDITH GAP   N/A       21   4  48 W4         N/A
* LOMA         N/A       29  13  51 SW11       N/A   WCI  19
$$

MTZ017>020-022>027-061-062-050600-
NORTHEAST MONTANA
CITY           SKY/WX    TMP DP  RH WIND       PRES   REMARKS
GLASGOW        CLEAR     10  -2  58 SE15      30.09F WCI  -7
GLENDIVE       CLEAR      5  -6  60 S3        30.16F
JORDAN         CLEAR     16   1  51 VRB3      30.09F
SIDNEY         PTCLDY     3  -6  66 CALM      30.23F
WOLF POINT     CLEAR      7  -2  66 NE3       30.17F
* BEAVER HILL  N/A        6  -5  60 S10        N/A   WCI  -9
* CIRCLE       N/A       10   1  67 N/A        N/A
* LINDSAY DVD  N/A        5  -5  63 SE4        N/A
* NAVAJO       N/A        2  -7  65 S10        N/A   WCI -13
* PLENTYWOOD A CLEAR      0  -9  65 SE8       30.15F WCI -14
* POPLAR APT   PTCLDY     7  -6  55 E6        30.18S WCI  -4
* SACO         N/A        9   0  66 NE9        N/A   WCI  -4
* SCOBEY APT   CLEAR      1 -11  56 N/A        N/A
$$

MTZ028>042-056>058-050600-
SOUTHCENTRAL AND SOUTHEAST MONTANA
CITY           SKY/WX    TMP DP  RH WIND       PRES   REMARKS
BAKER          CLEAR      5  -2  72 S7        30.16F WCI  -7
BILLINGS       CLEAR     21   7  55 SW21      30.07S WCI   5
LIVINGSTON     PTCLDY    30   7  38 W22       30.06R WCI  17
MILES CITY     CLEAR     10  -2  58 N/A       30.15S
* BIG TIMBER A PTCLDY    32   5  32 W25G33    30.02R WCI  19
* FORSYTH APT  CLEAR     18   5  57 E3        30.13S
* LAUREL APT   CLEAR     21   1  41 SW13G24    N/A   WCI   8
* ROUNDUP APT  CLEAR     21   3  45 N/A        N/A
* ALZADA       N/A        2  -6  69 E4         N/A
* HYSHAM       N/A       18   2  49 SW6        N/A   WCI  10
* REED POINT   N/A       19   5  54 SE3        N/A
* ROSCOE HILL  N/A       19  -4  36 E7         N/A   WCI  10
$$

REGIONAL REPORTS...DAKOTAS
CITY           SKY/WX    TMP DP  RH WIND       PRES   REMARKS
WILLISTON      PTCLDY     0  -9  65 S5        30.22F WCI -11
DICKINSON      CLEAR     -2  -9  72 S8        30.18S WCI -17
BEACH          CLEAR      0  -4  83 S6        30.17F WCI -12
CROSBY         CLEAR     -8 -13  78 S16       30.20F WCI -30
TIOGA          CLEAR    -17 -18  95 CALM      30.23S
WATFORD CITY   CLEAR     -2  -9  72 CALM      30.20S
BISMARCK       PTCLDY    -6 -15  64 E3        30.34F
GRAND FORKS    CLEAR    -11 -17  74 W7        30.40S WCI -26
FARGO          PTCLDY    -6 -15  64 W8        30.43R WCI -21
BUFFALO SD     PTCLDY     3  -6  66 S8        30.11F WCI -10
RAPID CITY     PTCLDY     3  -2  79 S8        30.24S WCI -10
$$

REGIONAL REPORTS...WYOMING/IDAHO/WASHINGTON
CITY           SKY/WX    TMP DP  RH WIND       PRES   REMARKS
GILLETTE       PTCLDY     7   0  73 S7        30.11S WCI  -5
SHERIDAN       PTCLDY     1  -8  65 NW6       30.10R WCI -11
CODY           PTCLDY    25   7  46 W14G26    30.06R WCI  13
YELLOWSTONE LA PTCLDY    -2  -9  72 NW3       30.18R
SALMON         CLEAR     21  10  62 CALM      30.25R
MULLAN PASS    CLEAR     21   5  50 SW6       30.15S WCI  13
SAND POINT     CLEAR     28  21  75 CALM      30.26R
SPOKANE        CLEAR     34  16  48 S6        30.24S WCI  29
$$

REGIONAL REPORTS...ALBERTA
CITY           SKY/WX    TMP DP  RH WIND       PRES   REMARKS
CALGARY        N/A       21  10  62 VRB3      29.93R
LETHBRIDGE     FAIR      34  12  40 W24G30    29.94S WCI  22
MEDICINE HAT   CLEAR     21  14  74 SW12      29.96R WCI   9
EDMONTON       FAIR      16   1  51 SW6       29.91R WCI   7
WATERTON GATE  N/A       30  10  43 SW30G39    N/A   WCI  15
CARDSTON       N/A       32  14  47 W16G24     N/A   WCI  21
MILK RIVER     N/A       19  14  81 W6         N/A   WCI  11
$$

REGIONAL REPORTS...SASKATCHEWAN
CITY           SKY/WX    TMP DP  RH WIND       PRES   REMARKS
SWIFT CURRENT  FAIR       3  -4  72 S10       29.97F WCI -12
REGINA         FAIR      -9 -17  67 SE16      30.13F WCI -32
VAL MARIE      N/A       10   1  67 S6         N/A
ASSINIBOIA     N/A        1  -6  72 S8         N/A   WCI -13
CORONACH       N/A        3  -6  66 SE6        N/A   WCI  -8

$$




USA.gov is the U.S. government's official web portal to all federal, state and local government web resources and services.